This demonstration page uses our WeatherBlox Daily Observations layout. Learn more.

Left ArrowRight Arrow

34.02893, -84.19858

Hourly Observations for February 21, 2017

Temp ( °F °C ) Dew Point ( °F °C ) Humidity (%) Winds ( mph kmh ) Pressure ( in mb ) Visibility ( mi km ) Precip ( " mm )
12:53 am 00:53 Clear 59 15 42 5.6 54 54 Calm 30.10 1019 10 16 0.00 0.00
1:53 am 01:53 Clear 58 14.4 42 5.6 56 56 VRB 3 6 30.10 1019 10 16 0.00 0.00
2:53 am 02:53 Clear 57 13.9 42 5.6 58 58 E 3 6 30.09 1019 10 16 0.00 0.00
3:53 am 03:53 Mostly Cloudy 57 13.9 43 6.1 60 60 Calm 30.09 1019 10 16 0.00 0.00
4:53 am 04:53 Mostly Cloudy 56 13.3 44 6.7 65 65 Calm 30.09 1019 10 16 0.00 0.00
5:53 am 05:53 Clear 55 12.8 45 7.2 69 69 VRB 3 6 30.10 1019 10 16 0.00 0.00
6:53 am 06:53 Mostly Clear 55 12.8 45 7.2 69 69 E 5 7 30.10 1019 10 16 0.00 0.00
7:53 am 07:53 Sunny 55 12.8 45 7.2 69 69 VRB 3 6 30.11 1020 10 16 0.00 0.00
8:53 am 08:53 Partly Cloudy 57 13.9 45 7.2 64 64 E 7 11 30.10 1019 10 16 0.00 0.00
9:53 am 09:53 Cloudy 60 15.6 46 7.8 60 60 SE 7 11 30.10 1019 10 16 0.00 0.00
10:53 am 10:53 Mostly Cloudy 62 16.7 48 8.9 60 60 SSE 8 13 30.11 1020 10 16 0.00 0.00
11:53 am 11:53 Mostly Cloudy 65 18.3 50 10 59 59 ESE 7 11 30.09 1019 10 16 0.00 0.00
12:53 pm 12:53 Sunny 69 20.6 52 11.1 55 55 VRB 6 9 30.03 1017 10 16 0.00 0.00
1:53 pm 13:53 Cloudy 68 20 52 11.1 57 57 SE 8 13 30.00 1016 10 16 0.00 0.00
2:53 pm 14:53 Cloudy with Light Rain 66 18.9 54 12.2 65 65 SE 6 9 29.99 1016 10 16 0.00 0.03
3:53 pm 15:53 Cloudy with Light Rain 64 17.8 56 13.3 75 75 SE 7 11 29.99 1016 4 6 0.01 0.25
4:53 pm 16:53 Cloudy 62 16.7 57 13.9 84 84 Calm 30.00 1016 8 13 0.02 0.51
5:53 pm 17:53 Cloudy with Light Rain 61 16.1 58 14.4 90 90 ENE 5 7 29.98 1015 6 10 0.01 0.25
6:53 pm 18:53 Cloudy with Light Rain 61 16.1 58 14.4 90 90 ENE 5 7 29.98 1015 5 8 0.01 0.25
7:53 pm 19:53 Cloudy with Light Rain 61 16.1 58 14.4 90 90 SE 3 6 29.98 1015 5 8 0.02 0.51
8:53 pm 20:53 Cloudy with Mist and Fog 60 15.6 57 13.9 90 90 Calm 29.96 1015 4 6 0.02 0.51
9:53 pm 21:53 Cloudy with Light Rain 60 15.6 57 13.9 90 90 ENE 3 6 29.95 1014 8 13 0.01 0.25
10:53 pm 22:53 Cloudy with Light Rain 61 16.1 56 13.3 84 84 VRB 6 9 29.94 1014 9 14 0.00 0.03
11:53 pm 23:53 Cloudy with Light Rain 60 15.6 56 13.3 86 86 VRB 5 7 29.93 1013 8 13 0.01 0.25

Powered by AerisWeather